www.pogodaiklimat.ru

Погода и климат >> Архив погоды >> Узбекистан >> Муйнак


ПОГОДА в Муйнаке

  • Прогноз погоды в Муйнаке
  • Монитор погоды в Муйнаке

АРХИВ ПОГОДЫ в Муйнаке

Время (UTC), дата Ветер
(напр.,м/с)
 
Видим.   Явления Облачность Т
(С)
Тd
(С)
f
(%)
Тe
(С)
Тes
(С)
Комфортность P
(гПа)
Po
(гПа)
Тmin
(С)
Tmax
(С)
R
(мм)
R24
(мм)
S
(см)
09 10.09 З 1 10 км 6/6 1000 м
[Cu med, cong]
+24.4 +11.3 44 +26 +31 жарко 1024.6 1018.1
15 10.09 С 2 10 км 3/0
[Ac lent]
+22.2 +10.6 48 +24 +24 комфорт 1023.7 1017.1 +27.5
18 10.09 В 2 10 км ясно +18.0 +12.2 69 +19 +19 1024.1 1017.4 +27.5
21 10.09 В 2 10 км ясно +15.3 +10.9 75 +15 +15 1024.2 1017.4
00 11.09 В 1 10 км ясно +12.5 +7.4 71 +13 +13 1024.4 1017.7
03 11.09 ЮВ 1 10 км ясно +13.0 +6.8 66 +13 +14 1025.3 1018.5
06 11.09 штиль 0 10 км ясно +24.0 +11.7 46 +26 +38 жарко 1025.9 1019.4 +12.5
09 11.09 Ю 2 10 км 6/6 1000 м
[Cu med, cong]
+27.4 +12.7 40 +29 +34 жарко 1025.6 1019.1
12 11.09 В 3 10 км 3/3 1000 м
[Cu med, cong]
+27.8 +12.4 39 +29 +31 жарко 1025.0 1018.6
15 11.09 СВ 1 10 км ясно +22.6 +11.1 48 +25 +25 комфорт 1025.4 1018.8 +29.0
00 12.09 В 2 10 км ясно +13.2 +5.8 61 +13 +13 1026.3 1019.5
03 12.09 В 2 10 км ясно +12.2 +5.3 63 +11 +12 1026.5 1019.6
06 12.09 СВ 1 10 км ясно +23.8 +10.0 42 +25 +36 комфорт 1026.1 1019.5 +12.2
09 12.09 СВ 4 10 км ясно +26.9 +10.9 37 +28 +36 жарко 1024.8 1018.3
12 12.09 СВ 2 10 км 3/0
[Ci sp]
+28.2 +9.0 30 +28 +31 жарко 1022.7 1016.3
15 12.09 С 1 10 км 8/0
[Ac trans Ci sp]
+23.4 +9.9 42 +25 +25 комфорт 1022.5 1016.0 +28.6
18 12.09 СЗ 3 10 км 9/0
[Ac As Cs]
+20.8 +8.6 45 +23 +23 комфорт 1022.2 1015.5 +28.6
21 12.09 С 2 10 км 4/0
[Ac lent]
+17.8 +8.5 54 +18 +18 1021.7 1015.0
00 13.09 С 2 10 км 4/0
[Ac lent]
+14.3 +6.4 59 +14 +14 1021.9 1015.2
03 13.09 С 1 10 км 6/0
[Ac trans Ci sp]
+13.6 +6.1 60 +14 +15 1022.3 1015.5
06 13.09 СВ 2 10 км 6/0
[Ac trans Ci sp]
+24.7 +7.7 34 +25 +31 комфорт 1022.5 1016.0 +13.6
09 13.09 СВ 2 10 км 10/0
[Ac As Ci sp]
+27.7 +9.9 33 +28 +32 жарко 1022.0 1015.5
12 13.09 Ю 2 10 км 10/0
[Ac As]
+26.3 +9.9 36 +27 +28 жарко 1020.1 1013.6
15 13.09 СЗ 2 10 км 10/0
[Ac As]
+24.0 +8.8 38 +25 +25 комфорт 1019.9 1013.4 +27.7
18 13.09 С 1 10 км 8/0
[Ac As]
+21.0 +7.5 42 +23 +23 комфорт 1020.1 1013.5 +27.7
21 13.09 нст 1 10 км 6/0
[Ac As]
+18.0 +7.3 50 +19 +19 1020.1 1013.5
00 14.09 СЗ 2 10 км 8/0
[Ac As]
+16.6 +7.4 55 +17 +17 1019.9 1013.2
03 14.09 СЗ 4 10 км 10/3 600 м
[Cb cap Ac As]
+18.2 +10.4 60 +18 +18 1020.0 1013.4
09 14.09 С 4 10 км 6/3 1000 м
[Cu hum Ac lent]
+25.0 +10.3 40 +26 +30 жарко 1019.8 1013.3
12 14.09 СЗ 4 10 км 6/4 1000 м
[Cu hum Ac lent]
+25.6 +10.6 39 +27 +28 жарко 1018.8 1012.3
15 14.09 СЗ 3 10 км 6/4 1000 м
[Cu med, cong Ac lent]
+21.4 +11.3 53 +23 +23 комфорт 1018.9 1012.3 +26.3
18 14.09 З 2 10 км 5/4 1000 м
[Cu med, cong Ac lent]
+17.8 +9.7 59 +18 +18 1019.4 1012.8 +26.3
21 14.09 З 2 10 км ясно +17.1 +10.6 66 +17 +17 1019.4 1012.8
00 15.09 ЮЗ 2 10 км ясно +12.3 +8.4 77 +11 +11 1019.6 1012.9
03 15.09 СЗ 2 10 км ясно +13.0 +9.0 77 +12 +13 1020.1 1013.4
06 15.09 З 1 10 км ясно +22.2 +10.4 47 +24 +34 комфорт 1021.1 1014.5 +12.3
09 15.09 З 3 10 км 4/4 1000 м
[Cu med, cong]
+26.6 +10.6 37 +27 +33 жарко 1020.3 1013.8
12 15.09 СЗ 2 10 км 3/3 1500 м
[Cu hum]
+27.2 +10.5 35 +28 +30 жарко 1019.5 1013.0
15 15.09 нст 1 10 км ясно +22.0 +11.7 52 +24 +24 комфорт 1019.6 1013.0 +28.0
18 15.09 штиль 0 10 км ясно +17.8 +11.4 66 +18 +18 1019.6 1013.0 +28.0
21 15.09 Ю 2 10 км ясно +15.4 +7.8 60 +15 +15 1019.6 1012.9
00 16.09 Ю 3 10 км ясно +12.4 +6.8 69 +11 +11 1019.7 1012.9
03 16.09 Ю 2 10 км 4/0
[Ci sp]
+14.0 +7.6 65 +14 +14 1019.8 1013.1
06 16.09 З 4 10 км 3/0
[Ci fib]
+24.0 +8.8 38 +25 +30 комфорт 1020.1 1013.6 +12.4
09 16.09 ЮЗ 3 10 км 3/0
[Ci fib]
+28.5 +9.8 31 +29 +37 жарко 1019.4 1013.0
12 16.09 ЮЗ 3 10 км 3/0
[Ci fib]
+30.0 +11.4 32 +31 +33 жарко 1017.8 1011.4
18 16.09 Ю 4 10 км ясно +19.8 +10.6 55 +21 +21 комфорт 1017.4 1010.8 +30.0
03 17.09 Ю 1 10 км ясно +12.4 +7.4 72 +13 +13 1018.0 1011.2

 

Местоположение метеостанции Муйнак (Каракалпакстан, Узбекистан): широта 43.75 долгота 58.73 высота над уровнем моря 55 м.

В архиве по умолчанию представлена погода в Муйнаке за последнюю неделю. Архивные данные за месяц целиком и за предыдущие месяцы, начиная с января 2011 года, Вы можете получить, выбрав интересующий диапазон дат из раскрывающегося списка и нажав кнопку "Ввод!".


*Определитесь, кто Вы:
робот инопланетянин человек

Внимание! Время в таблицах - всемирное. Для получения местного времени необходимо прибавить поправку, которая равна 5 ч.

Смотрите также архив погоды в соседних городах и на ближайших метеорологических станциях:

Погода в Кунграде (Каракалпакстан, Узбекистан) (76 км)
Погода в Жаслыке (Каракалпакстан, Узбекистан) (98 км)
Погода в Чимбае (Каракалпакстан, Узбекистан) (125 км)
Погода в Тахтакупыре (Каракалпакстан, Узбекистан) (159 км)
Погода в Нукусе (Каракалпакстан, Узбекистан) (162 км)
Погода в Кенеургенче (Дашогузский велаят, Туркменистан) (165 км)
Погода в Тахиаташе (Каракалпакстан, Узбекистан) (166 км)
Погода в Каракалпакии (Каракалпакстан, Узбекистан) (227 км)
Погода в Дашогузе (Дашогузский велаят, Туркменистан) (240 км)
Погода в Шах-Сенеме (Дашогузский велаят, Туркменистан) (241 км)

Пояснения к столбцам:

Ветер - указаны скорость ветра в м/с - средняя за 10 мин, порывы в срок и между сроками (в фигурных скобках) и направление, откуда дует ветер: С - северный, СВ - северо-восточный, В - восточный, ЮВ - юго-восточный, Ю - южный, ЮЗ - юго-западный, З - западный, СЗ - северо-западный.
Видимость - горизонтальная дальность видимости в метрах или километрах. При видимости от 1 до 10 км при отсутствии осадков обычно наблюдается дымка, при ухудшении видимости до 1 км и менее - туман. В сухую погоду видимость может ухудшаться дымом, пылью или мглою.
Явления - указаны атмосферные явления, наблюдавшиеся в срок или в последний час перед сроком; фигурными скобками обозначены явления, наблюдавшиеся между сроками (за 1-3 часа до срока); квадратными скобками обозначены град или гололедные отложения с указанием их диаметра в мм.
Облачность - указаны через наклонную черту общая и нижняя облачность в баллах и высота нижней границы облаков в метрах; квадратными скобками обозначены формы облаков: Ci - перистые, Cs - перисто-слоистые, Cc - перисто-кучевые, Ac - высококучевые, As - высокослоистые, Sc - слоисто-кучевые, Ns - слоисто-дождевые, Cu - кучевые, Cb - кучево-дождевые. Подробнее классификацию облаков см. в Атласе облаков (PDF).
T - Температура воздуха - температура, измеренная на высоте 2 м над землей.
Td - Температура точки росы - температура, при понижении до которой содержащийся в воздухе водяной пар достигнет насыщения.
f - Относительная влажность воздуха - влажноcть воздуха, измеренная на высоте 2 м над землей.
Te - Эффективная температура - температура, которую ощущает одетый по сезону человек в тени. Характеристика душности погоды. При расчете учитывается влияние влажности воздуха и скорости ветра на теплоощущения человека.
Tes - Эффективная температура на солнце - температура, которую ощущает человек, с поправкой на солнечный нагрев. Характеристика знойности погоды. Зависит от высоты солнца над горизонтом, облачности и скорости ветра. Ночью, в пасмурную погоду, а также при ветре 12 м/с и более поправка равна нулю.
P - Атмосферное давление - приведенное к уровню моря атмосферное давление.
Po - Атмосферное давление - измеренное на уровне метеостанции атмосферное давление.
Tmin - Минимальная температура - минимум температуры воздуха на высоте 2 м над землей.
Tmax - Максимальная температура - максимум температуры воздуха на высоте 2 м над землей.
R - Количество осадков - Количество выпавших осадков за период времени, мм. При наведении курсора мыши на число - период времени, за который выпало указанное количество осадков.
R24 - Количество осадков - Количество выпавших осадков за 24 часа, мм.
S - Снежный покров - Высота снежного покрова, см. При наведении курсора мыши на число - состояние снежного покрова и степень покрытия местности в баллах.